CW8632 Weather Reports


time (UTC)temp
F
wind
direction
speed
knots
gust
knots
rain 1hr
in
rain 24hr
in
rain mn
in
humidity
%
barometer
mb
20260504231616 68 321 13.0 18.2 0.00 0.00 0.00 31 1005.8
20260504230627 68 317 11.3 18.2 0.00 0.00 0.00 33 1005.7
20260504225614 69 328 12.2 21.7 0.00 0.00 0.00 29 1005.7
20260504224626 69 334 11.3 15.6 0.00 0.00 0.00 30 1005.7
20260504223615 73 317 11.3 17.4 0.00 0.00 0.00 26 1005.9
20260504222625 76 161 3.5 9.6 0.00 0.00 0.00 25 1005.6
20260504221618 75 203 7.0 11.3 0.00 0.00 0.00 27 1005.4
20260504220630 76 158 7.8 13.0 0.00 0.00 0.00 25 1005.4
20260504215632 75 142 7.0 13.9 0.00 0.00 0.00 27 1005.6
20260504214624 75 152 7.8 12.2 0.00 0.00 0.00 29 1005.8
20260504213639 75 138 7.8 13.0 0.00 0.00 0.00 28 1005.8
20260504212629 75 167 6.1 13.9 0.00 0.00 0.00 27 1006.0
20260504211619 75 188 7.8 13.0 0.00 0.00 0.00 31 1006.2
20260504210650 75 192 5.2 11.3 0.00 0.00 0.00 24 1006.3
20260504205618 75 160 7.8 13.0 0.00 0.00 0.00 29 1006.5
20260504204629 75 154 6.1 13.0 0.00 0.00 0.00 27 1006.6
20260504203621 75 148 6.1 13.0 0.00 0.00 0.00 26 1006.6
20260504202651 75 190 7.0 10.4 0.00 0.00 0.00 27 1006.7
20260504201625 74 173 7.8 12.2 0.00 0.00 0.00 29 1006.8
20260504200618 73 184 6.1 10.4 0.00 0.00 0.00 32 1007.0
20260504195621 73 134 7.0 13.9 0.00 0.00 0.00 29 1007.2
20260504194619 73 153 7.0 11.3 0.00 0.00 0.00 29 1007.3
20260504193613 73 141 7.0 12.2 0.00 0.00 0.00 31 1007.4
20260504192626 73 157 5.2 13.9 0.00 0.00 0.00 31 1007.6
20260504191619 72 178 0.0 12.2 0.00 0.00 0.00 29 1007.7
20260504190614 73 189 7.0 9.6 0.00 0.00 0.00 31 1007.8
20260504185618 72 165 3.5 9.6 0.00 0.00 0.00 32 1008.0
20260504184629 72 149 3.5 10.4 0.00 0.00 0.00 29 1008.2
20260504183622 71 147 3.5 9.6 0.00 0.00 0.00 32 1008.5
20260504182618 71 163 5.2 9.6 0.00 0.00 0.00 33 1008.6
20260504181629 71 148 3.5 13.0 0.00 0.00 0.00 35 1008.7
20260504180624 69 230 3.5 11.3 0.00 0.00 0.00 38 1008.9
20260504175625 70 153 7.0 11.3 0.00 0.00 0.00 35 1008.9
20260504174619 70 214 7.0 10.4 0.00 0.00 0.00 33 1009.1
20260504173613 69 192 7.0 10.4 0.00 0.00 0.00 34 1009.1
20260504172646 69 160 7.0 11.3 0.00 0.00 0.00 33 1009.1
20260504171620 69 186 7.0 9.6 0.00 0.00 0.00 37 1009.2
20260504170618 68 140 6.1 8.7 0.00 0.00 0.00 39 1009.4
20260504150630 60 24 1.7 4.3 0.00 0.00 0.00 42 1009.7
20260504140618 53 341 2.6 5.2 0.00 0.00 0.00 45 1010.2
20260504130623 48 323 0.9 3.5 0.00 0.00 0.00 55 1009.9
20260504110613 46 238 1.7 14.8 0.00 0.00 0.00 55 1009.5
20260504081629 54 284 5.2 7.8 0.00 0.00 0.00 42 1008.7
20260504080616 54 307 6.1 8.7 0.00 0.00 0.00 42 1008.8
20260504050633 55 304 1.7 3.5 0.00 0.00 0.00 40 1009.7
20260504045618 54 296 0.9 3.5 0.00 0.00 0.00 42 1009.7
20260504044628 53 283 1.7 4.3 0.00 0.00 0.00 41 1009.7
20260504043617 53 346 1.7 3.5 0.00 0.00 0.00 47 1009.8
20260504042648 54 286 1.7 6.1 0.00 0.00 0.00 41 1009.7
20260504041622 52 294 2.6 3.5 0.00 0.00 0.00 50 1009.7
20260504040613 53 40 2.6 4.3 0.00 0.00 0.00 45 1009.7
20260504035614 56 284 0.0 3.5 0.00 0.00 0.00 39 1009.6
20260504034625 54 277 0.9 4.3 0.00 0.00 0.00 41 1009.6
20260504033639 50 304 2.6 4.3 0.00 0.00 0.00 52 1009.6
20260504032625 51 350 2.6 4.3 0.00 0.00 0.00 53 1009.6
20260504031630 56 39 2.6 3.5 0.00 0.00 0.00 43 1009.4
20260504030638 61 56 0.9 3.5 0.00 0.00 0.00 33 1009.3
20260504025612 65 244 3.5 6.1 0.00 0.00 0.00 23 1009.2
20260504024633 65 236 3.5 6.1 0.00 0.00 0.00 23 1009.2
20260504023622 64 246 3.5 6.1 0.00 0.00 0.00 26 1009.2
20260504022613 65 245 4.3 6.1 0.00 0.00 0.00 25 1009.2
20260504021641 67 243 3.5 4.3 0.00 0.00 0.00 23 1009.3
20260504020632 66 240 4.3 6.1 0.00 0.00 0.00 26 1009.4
20260504015630 66 245 3.5 6.1 0.00 0.00 0.00 25 1009.4
20260504014638 69 244 2.6 5.2 0.00 0.00 0.00 26 1009.4
20260504013646 71 228 3.5 5.2 0.00 0.00 0.00 21 1009.5
20260504012612 72 215 1.7 3.5 0.00 0.00 0.00 20 1009.7
20260504011625 72 220 3.5 4.3 0.00 0.00 0.00 21 1009.7
20260504010613 71 205 1.7 3.5 0.00 0.00 0.00 25 1009.9
20260504005614 71 143 3.5 4.3 0.00 0.00 0.00 25 1009.9
20260504004623 72 156 3.5 6.1 0.00 0.00 0.00 24 1010.1
20260504003617 72 165 3.5 6.1 0.00 0.00 0.00 20 1010.1
20260504002626 72 155 2.6 7.0 0.00 0.00 0.00 23 1010.1
20260504001615 73 150 3.5 8.7 0.00 0.00 0.00 19 1010.2
20260504000626 74 177 4.3 8.7 0.00 0.00 0.00 19 1010.2
20260503235652 75 143 4.3 7.8 0.00 0.00 0.00 20 1010.3
20260503234621 75 151 2.6 7.0 0.00 0.00 0.00 16 1010.4
20260503233632 75 186 3.5 10.4 0.00 0.00 0.00 16 1010.5
20260503232620 74 136 4.3 11.3 0.00 0.00 0.00 20 1010.5